TimeEST,TemperatureF,Dew PointF,Humidity,Sea Level PressureIn,VisibilityMPH,Wind Direction,Wind SpeedMPH,Gust SpeedMPH,PrecipitationIn,Events,Conditions,WindDirDegrees,DateUTC
12:15 AM,34.5,26.6,73,30.49,10.0,East,11.5,-,N/A,,Clear,90,2013-11-30 05:15:00
12:35 AM,34.7,26.6,72,30.49,10.0,East,11.5,-,N/A,,Clear,90,2013-11-30 05:35:00
12:55 AM,34.3,26.6,73,30.49,10.0,East,12.7,-,N/A,,Clear,90,2013-11-30 05:55:00
1:15 AM,34.0,26.4,74,30.49,10.0,East,11.5,-,N/A,,Clear,90,2013-11-30 06:15:00
1:35 AM,34.0,26.2,73,30.49,10.0,East,12.7,-,N/A,,Clear,90,2013-11-30 06:35:00
1:55 AM,34.3,25.9,71,30.49,10.0,East,11.5,-,N/A,,Clear,90,2013-11-30 06:55:00
2:15 AM,34.2,25.7,71,30.49,10.0,East,10.4,-,N/A,,Clear,80,2013-11-30 07:15:00
2:35 AM,33.8,25.7,72,30.49,10.0,East,10.4,-,N/A,,Clear,90,2013-11-30 07:35:00
2:55 AM,33.8,25.5,72,30.49,10.0,East,12.7,-,N/A,,Clear,80,2013-11-30 07:55:00
3:15 AM,33.4,25.3,72,30.48,10.0,East,12.7,-,N/A,,Clear,90,2013-11-30 08:15:00
3:35 AM,33.6,25.2,71,30.48,10.0,East,9.2,-,N/A,,Clear,80,2013-11-30 08:35:00
3:55 AM,33.4,24.8,71,30.48,10.0,East,11.5,-,N/A,,Clear,80,2013-11-30 08:55:00
4:15 AM,32.9,24.8,72,30.48,10.0,East,12.7,-,N/A,,Clear,80,2013-11-30 09:15:00
4:35 AM,32.9,24.6,72,30.48,10.0,East,11.5,16.1,N/A,,Clear,80,2013-11-30 09:35:00
4:55 AM,32.5,24.6,73,30.48,10.0,East,11.5,-,N/A,,Clear,80,2013-11-30 09:55:00
5:15 AM,32.4,24.4,73,30.49,10.0,East,10.4,-,N/A,,Clear,80,2013-11-30 10:15:00
5:35 AM,32.2,24.6,74,30.49,10.0,East,11.5,-,N/A,,Clear,80,2013-11-30 10:35:00
5:55 AM,32.0,24.4,74,30.49,10.0,East,10.4,-,N/A,,Clear,80,2013-11-30 10:55:00
6:15 AM,32.0,24.4,74,30.49,10.0,East,9.2,-,N/A,,Clear,80,2013-11-30 11:15:00
6:35 AM,32.0,24.3,73,30.50,10.0,East,8.1,-,N/A,,Clear,80,2013-11-30 11:35:00
6:55 AM,32.0,24.3,73,30.50,10.0,East,8.1,-,N/A,,Clear,80,2013-11-30 11:55:00
7:15 AM,31.6,24.3,74,30.51,10.0,East,9.2,-,N/A,,Clear,80,2013-11-30 12:15:00
7:35 AM,31.6,24.3,74,30.51,10.0,East,9.2,-,N/A,,Clear,80,2013-11-30 12:35:00
7:55 AM,32.0,24.6,74,30.50,10.0,East,11.5,-,N/A,,Clear,80,2013-11-30 12:55:00
8:15 AM,32.0,24.8,75,30.50,10.0,East,13.8,17.3,N/A,,Clear,90,2013-11-30 13:15:00
8:35 AM,32.9,25.3,74,30.50,10.0,East,12.7,-,N/A,,Clear,90,2013-11-30 13:35:00
8:55 AM,33.4,25.3,72,30.50,10.0,East,15.0,-,N/A,,Clear,90,2013-11-30 13:55:00
9:15 AM,33.8,25.7,72,30.50,10.0,East,12.7,-,N/A,,Clear,90,2013-11-30 14:15:00
9:35 AM,34.9,26.2,71,30.50,10.0,East,12.7,-,N/A,,Clear,90,2013-11-30 14:35:00
9:55 AM,36.3,26.1,66,30.50,10.0,East,13.8,-,N/A,,Clear,80,2013-11-30 14:55:00
10:15 AM,37.4,26.6,65,30.50,10.0,East,12.7,-,N/A,,Clear,100,2013-11-30 15:15:00
10:35 AM,39.0,27.5,63,30.50,10.0,ESE,11.5,-,N/A,,Clear,110,2013-11-30 15:35:00
10:55 AM,39.7,27.0,60,30.49,10.0,East,11.5,-,N/A,,Clear,100,2013-11-30 15:55:00
11:15 AM,40.8,28.0,60,30.48,10.0,East,10.4,-,N/A,,Clear,90,2013-11-30 16:15:00
11:35 AM,41.5,28.4,60,30.48,10.0,East,10.4,-,N/A,,Clear,100,2013-11-30 16:35:00
11:55 AM,42.4,28.8,58,30.46,10.0,ESE,9.2,-,N/A,,Clear,110,2013-11-30 16:55:00
12:15 PM,43.9,29.5,57,30.45,10.0,East,8.1,-,N/A,,Clear,100,2013-11-30 17:15:00
12:35 PM,45.0,29.7,55,30.44,10.0,East,6.9,-,N/A,,Clear,100,2013-11-30 17:35:00
12:55 PM,45.3,29.5,54,30.43,10.0,East,6.9,-,N/A,,Clear,90,2013-11-30 17:55:00
1:15 PM,46.8,30.6,53,30.42,10.0,East,8.1,-,N/A,,Clear,100,2013-11-30 18:15:00
1:35 PM,47.3,30.0,51,30.41,10.0,East,4.6,-,N/A,,Clear,90,2013-11-30 18:35:00
1:55 PM,48.4,30.4,50,30.40,10.0,ESE,4.6,-,N/A,,Clear,120,2013-11-30 18:55:00
2:15 PM,49.1,30.7,49,30.39,10.0,East,3.5,-,N/A,,Clear,90,2013-11-30 19:15:00
2:35 PM,49.6,30.4,48,30.37,10.0,Calm,Calm,-,N/A,,Clear,0,2013-11-30 19:35:00
2:55 PM,50.2,30.7,47,30.36,10.0,SE,3.5,-,N/A,,Clear,130,2013-11-30 19:55:00
3:15 PM,50.4,30.7,47,30.35,10.0,ESE,4.6,-,N/A,,Clear,110,2013-11-30 20:15:00
3:35 PM,50.0,30.9,48,30.34,10.0,East,6.9,-,N/A,,Clear,100,2013-11-30 20:35:00
3:55 PM,50.0,30.9,48,30.33,10.0,ESE,5.8,-,N/A,,Clear,110,2013-11-30 20:55:00
4:15 PM,49.3,31.1,50,30.33,10.0,East,5.8,-,N/A,,Clear,90,2013-11-30 21:15:00
4:35 PM,48.2,31.3,52,30.33,10.0,East,4.6,-,N/A,,Clear,90,2013-11-30 21:35:00
4:55 PM,46.8,30.7,54,30.33,10.0,East,3.5,-,N/A,,Clear,80,2013-11-30 21:55:00
5:15 PM,46.0,30.2,54,30.32,10.0,ESE,4.6,-,N/A,,Clear,110,2013-11-30 22:15:00
5:35 PM,42.8,30.2,61,30.33,10.0,East,4.6,-,N/A,,Clear,90,2013-11-30 22:35:00
5:55 PM,42.1,30.0,62,30.32,10.0,East,4.6,-,N/A,,Clear,90,2013-11-30 22:55:00
6:15 PM,40.5,29.8,66,30.33,10.0,East,5.8,-,N/A,,Clear,90,2013-11-30 23:15:00
6:35 PM,40.8,30.0,65,30.32,10.0,East,8.1,-,N/A,,Clear,100,2013-11-30 23:35:00
6:55 PM,38.8,30.0,71,30.32,10.0,East,8.1,-,N/A,,Clear,100,2013-11-30 23:55:00
7:15 PM,38.3,29.7,71,30.32,10.0,East,8.1,-,N/A,,Clear,100,2013-12-01 00:15:00
7:35 PM,37.8,29.3,72,30.32,10.0,East,8.1,-,N/A,,Clear,90,2013-12-01 00:35:00
7:55 PM,37.9,28.6,69,30.31,10.0,East,6.9,-,N/A,,Clear,80,2013-12-01 00:55:00
8:15 PM,37.6,28.0,68,30.31,10.0,East,4.6,-,N/A,,Clear,80,2013-12-01 01:15:00
8:35 PM,37.9,27.5,66,30.31,10.0,ENE,3.5,-,N/A,,Clear,70,2013-12-01 01:35:00
8:55 PM,37.6,27.5,67,30.31,10.0,East,4.6,-,N/A,,Clear,80,2013-12-01 01:55:00
9:15 PM,37.0,27.3,68,30.31,10.0,East,4.6,-,N/A,,Clear,80,2013-12-01 02:15:00
9:35 PM,36.0,27.1,70,30.31,10.0,East,6.9,-,N/A,,Clear,90,2013-12-01 02:35:00
9:55 PM,35.4,27.0,71,30.31,10.0,East,5.8,-,N/A,,Clear,80,2013-12-01 02:55:00
10:15 PM,34.7,26.8,73,30.30,10.0,East,8.1,-,N/A,,Clear,90,2013-12-01 03:15:00
10:35 PM,34.0,26.6,74,30.30,10.0,East,4.6,-,N/A,,Clear,90,2013-12-01 03:35:00
10:55 PM,33.8,26.6,75,30.30,10.0,East,5.8,-,N/A,,Clear,100,2013-12-01 03:55:00
11:15 PM,34.0,26.4,74,30.29,10.0,East,8.1,-,N/A,,Clear,100,2013-12-01 04:15:00
11:35 PM,33.4,26.4,75,30.28,10.0,East,8.1,-,N/A,,Clear,90,2013-12-01 04:35:00
11:55 PM,33.8,26.2,74,30.28,10.0,East,5.8,-,N/A,,Clear,90,2013-12-01 04:55:00